Location: ?????
(30.0351°N, 31.2140°E)
Time: 11:20:28
(UTC+00:00)

Daily predictions for brighter satellites

Satellite Brightness Start Highest point End
(mag) Time Altitude Azimuth Time Altitude Azimuth Time Altitude Azimuth
ADEOS 3.8 15:54:06 10° S 15:59:18 81° WSW 16:04:32 10° NNW
Radarsat Rocket 4.1 15:56:05 10° SSE 16:02:01 72° ENE 16:08:35 10° N
Atlas Centaur 2 3.0 15:56:32 10° W 16:03:50 88° N 16:12:17 10° E
Cosmos 1244 Rocket 4.5 15:59:25 10° N 16:05:41 72° E 16:11:52 10° SSE
Cosmos 2322 3.8 16:01:34 10° SSW 16:07:17 87° ESE 16:13:01 10° NNE
Haruka 2.4 16:04:55 10° W 16:09:57 89° N 16:13:10 10° E
IRIDIUM 103 4.5 16:05:55 10° N 16:11:00 52° E 16:16:03 10° SSE
Okean O Rocket 3.4 16:09:51 10° E 16:11:37 12° ENE 16:13:24 10° NE
CZ-4 R/B 3.1 16:13:45 10° ESE 16:15:56 14° ENE 16:18:07 10° NE
YAOGAN 1 3.5 16:13:04 10° SE 16:16:39 26° ENE 16:20:14 10° NNE
Cosmos 1745 Rocket 4.3 16:12:48 10° N 16:18:35 41° E 16:24:17 10° SSE
Okean 1-7 Rocket 3.8 16:16:30 10° SSE 16:20:44 49° E 16:25:02 10° NNE
USA 215 4.0 16:19:27 10° E 16:25:08 33° NE 16:30:50 10° NNW
Cosmos 2058 4.0 16:23:55 10° SE 16:27:15 24° E 16:30:36 10° NE
Cosmos 1844 Rocket 3.2 16:23:08 10° NNW 16:28:38 62° WSW 16:34:06 10° S
IRIDIUM 106 4.3 16:24:03 10° N 16:29:17 82° E 16:34:29 10° S
RESURS DK-1 2.8 16:25:30 10° NNW 16:29:34 66° WSW 16:33:38 10° S
Cosmos 2058 Rocket 3.0 16:26:31 10° N 16:30:58 85° E 16:35:25 10° S
H-2A R/B 3.2 16:33:08 10° SSW 16:36:19 28° SE 16:40:50 17° E
Cosmos 1709 Rocket 4.5 16:30:51 10° NNE 16:36:21 34° E 16:41:49 10° SE
Cosmos-2242 4.3 16:36:22 10° NNE 16:38:36 19° ENE 16:38:36 19° ENE
PSLV R/B 3.6 16:37:31 10° SSE 16:41:05 56° ENE 16:44:43 10° N
Cosmos 1340 3.1 16:38:32 10° NNW 16:42:09 61° W 16:45:45 10° S
CZ-4B R/B 3.4 16:37:49 10° SE 16:42:53 46° ENE 16:48:03 10° N
Cosmos 1869 4.4 16:41:19 10° NNW 16:45:07 47° W 16:48:57 10° SSW
Cosmos 883 Rocket 4.4 16:39:22 10° S 16:45:34 70° E 16:51:51 10° N
Cosmos 2219 Rocket 3.9 16:41:02 10° SW 16:45:55 31° WNW 16:50:52 10° N
ATLAS 2AS CENTAUR R/B 4.0 16:40:14 10° NW 16:46:25 40° WSW 16:52:22 10° S
CZ-4B DEB 4.4 16:41:41 10° S 16:47:06 76° WSW 16:52:34 10° NNW
Spot 1 3.8 16:49:20 10° NNE 16:53:24 73° ESE 16:57:33 10° S
Centaur D AC-29 2.9 16:50:54 10° WSW 16:53:52 22° SSW 16:56:58 10° SE
Chunghua 1 4.4 16:51:10 10° WNW 16:54:28 55° NNE 16:55:02 47° NE
Cosmos 1602 Rocket 3.4 16:51:11 10° S 16:55:30 86° E 16:59:48 10° N
BREEZE-M DEB (TANK) 3.5 16:54:45 10° WNW 16:57:12 27° SW 16:59:21 10° SSE
MOS 1-B 4.2 16:54:30 10° SSE 17:00:16 75° ENE 17:06:04 10° N
Cosmos 2237 Rocket 2.1 16:54:43 10° S 17:00:19 64° ESE 17:04:59 15° NNE
SL-24 R/B - RUBIN 2 3.4 16:56:07 10° SSW 17:00:25 87° ESE 17:02:54 25° NNE
Cosmos 1400 Rocket 2.8 16:58:11 10° S 17:01:56 51° E 17:02:25 47° ENE
GPS 2-04 Rocket1 2.4 16:58:36 10° WSW 17:02:17 70° SSE 17:02:49 58° ESE
NOSS 0 Rocket 4.0 16:58:09 10° SSW 17:04:21 79° WNW 17:10:38 10° NNE
Cosmos 1814 Rocket 3.9 16:59:08 10° N 17:04:27 64° ENE 17:09:42 10° SSE
Cosmos 841 Rocket 4.4 17:01:03 10° NNW 17:06:05 49° WSW 17:11:04 10° S
FUSE 4.4 17:01:53 10° WSW 17:07:01 50° S 17:09:02 33° SE
Cosmos 1758 Rocket 3.7 17:06:02 10° S 17:10:20 73° W 17:14:41 10° N
Cosmos 1606 3.1 17:06:55 10° NNW 17:10:41 63° W 17:14:24 10° S
Cosmos 1980 3.6 17:05:44 10° SSW 17:11:22 88° ESE 17:16:07 15° NNE
Cosmos 1356 Rocket 3.8 17:09:11 10° SSW 17:13:07 60° W 17:17:02 10° N
Cosmos 2278 Rocket 3.4 17:08:55 10° N 17:12:00 24° NNE 17:12:00 24° NNE
Lacrosse 5 rocket 2.1 17:10:23 10° NW 17:13:55 46° WSW 17:16:12 20° S
SJ 16-02 2.1 17:10:18 10° S 17:13:15 36° SE 17:13:15 36° SE
ATLAS 3B CENTAUR R/B 2.3 17:13:50 10° SW 17:15:02 23° SW 17:15:02 23° SW
Cosmos 1812 Rocket 3.4 17:16:18 10° N 17:20:44 78° E 17:25:07 10° S
IUS-9 SRM-1 3.9 17:24:06 10° W 17:27:56 51° S 17:31:01 34° SE
Delta 2 Rocket 4.3 17:27:11 10° WNW 17:29:24 36° W 17:29:24 36° W
SL-16 R/B 4.1 17:31:49 10° S 17:32:56 16° SSE 17:32:56 16° SSE
Okean O Rocket 2.6 17:43:18 10° S 17:47:28 44° W 17:51:42 10° NNW
CZ-4 R/B 3.1 17:46:49 10° SSW 17:50:29 32° W 17:54:09 10° NW
Cosmos 1570 Rocket 4.2 17:45:31 10° NNW 17:50:12 66° NW 17:50:12 66° NW
Atlas Centaur 2 2.9 17:45:43 10° W 17:53:45 82° SSW 17:55:07 66° ESE
USA 215 3.6 18:06:24 48° S 18:07:50 58° SW 18:14:15 10° NW
FALCON 9 R/B 4.2 18:52:27 10° SW 19:41:49 16° E 19:57:52 10° E
